Location: Sandy Point Observatory
(37.2521°N, 76.9605°W)
Time: 06:13:19
(UTC-05:00)

N. Korean satellite - Visible Passes

Search period start: 19 February 2019 00:00
Search period end: 01 March 2019 00:00
Orbit: 457 x 510 km, 97.2° (Epoch: 18 February)

Date Brightness Start Highest point End Pass type
(mag) Time Alt. Az. Time Alt. Az. Time Alt. Az.
19 Feb 6.4 06:20:15 10° N 06:23:43 89° WNW 06:27:08 10° SSW visible
19 Feb 10.0 18:27:59 10° SW 18:30:34 18° W 18:33:09 10° NW visible
20 Feb 8.2 05:55:43 10° NNE 05:58:58 37° E 06:02:09 10° SSE visible
21 Feb 9.7 05:31:44 10° NE 05:34:07 17° E 05:36:28 10° SE visible
23 Feb 6.7 06:14:42 10° NNE 06:18:09 76° E 06:21:34 10° S visible
23 Feb 9.8 18:22:12 10° SW 18:25:01 21° W 18:27:47 10° NW visible
24 Feb 8.6 05:50:15 10° NNE 05:53:22 31° E 05:56:27 10° SSE visible
25 Feb 9.9 05:26:27 10° ENE 05:28:30 15° E 05:30:31 10° SE visible
26 Feb 10.5 18:42:59 10° WSW 18:44:17 12° W 18:45:36 10° WNW visible
27 Feb 7.1 06:09:08 10° NNE 06:12:33 62° E 06:15:56 10° S visible
28 Feb 9.0 05:44:46 10° NE 05:47:44 27° E 05:50:41 10° SSE visible
